Change the Weather History Date:

Sunday, July 7, 2013

  Actual Average Record
Temperature  
Mean Temperature 67 °F -  
Max Temperature 84 °F 82 °F 94 °F (1989)
Min Temperature 50 °F 41 °F 28 °F (1931)
Cooling Degree Days 2    
Growing Degree Days 17 (Base 50)    
Moisture  
Dew Point 42 °F    
Average Humidity 48    
Maximum Humidity 91    
Minimum Humidity 13    
Precipitation  
Precipitation 0.00 in - - ()
Sea Level Pressure  
Sea Level Pressure 30.21 in    
Wind  
Wind Speed 2 mph (ENE)    
Max Wind Speed 7 mph    
Max Gust Speed -    
Visibility 10 miles    
Events      
Averages and records for this station are not official NWS values.
T = Trace of Precipitation, MM = Missing Value Source: NWS Daily Summary

Daily Weather History Graph

Daily Weather History Graph

Search for Another Location

Airport or City:

Trip Planner

Search our weather history database for the weather conditions in past years. The results will help you decide how hot, cold, wet, or windy it might be!

Date:

Astronomy

Jul. 07, 2013 Rise Set
Actual Time 5:44 AM MDT 8:40 PM MDT
Civil Twilight 5:11 AM MDT 9:13 PM MDT
Nautical Twilight 4:30 AM MDT 9:54 PM MDT
Astronomical Twilight 3:41 AM MDT 10:42 PM MDT
Moon 5:23 AM MDT (7/7) 8:05 PM MDT (7/7)
Length of Visible Light 16h 01m
Length of Day
14h 56m
Waning Crescent, 0% of the Moon is Illuminated
Jul 7
Waning Crescent
Jul 8
New
Jul 15
First Quarter
Jul 22
Full
Jul 29
Last Quarter

Hourly Weather History & Observations

Time (MDT) Temp. Dew Point Humidity Pressure Visibility Wind Dir Wind Speed Gust Speed Precip Events Conditions
12:15 AM 58.3 °F 49.1 °F 71% 30.18 in 10.0 mi NW 3.5 mph - N/A   Clear
12:35 AM 57.0 °F 49.1 °F 75% 30.19 in 10.0 mi WNW 3.5 mph - N/A   Clear
12:55 AM 56.7 °F 49.3 °F 76% 30.19 in 10.0 mi Calm Calm - N/A   Scattered Clouds
1:15 AM 55.8 °F 49.5 °F 79% 30.18 in 10.0 mi Calm Calm - N/A   Scattered Clouds
1:35 AM 57.6 °F 47.7 °F 70% 30.19 in 10.0 mi Calm Calm - N/A   Clear
1:55 AM 55.8 °F 48.6 °F 77% 30.20 in 10.0 mi Calm Calm - N/A   Clear
2:15 AM 54.0 °F 49.6 °F 85% 30.20 in 10.0 mi Calm Calm - N/A   Clear
2:35 AM 54.0 °F 50.0 °F 86% 30.20 in 10.0 mi ENE 3.5 mph - N/A   Clear
2:55 AM 53.6 °F 50.4 °F 89% 30.20 in 10.0 mi ENE 4.6 mph - N/A   Clear
3:15 AM 53.4 °F 46.8 °F 78% 30.20 in 10.0 mi East 5.8 mph - N/A   Clear
3:35 AM 53.2 °F 46.4 °F 78% 30.21 in 10.0 mi East 4.6 mph - N/A   Clear
3:55 AM 53.8 °F 46.0 °F 75% 30.20 in 10.0 mi ESE 6.9 mph - N/A   Clear
4:15 AM 54.1 °F 45.5 °F 73% 30.20 in 10.0 mi Calm Calm - N/A   Clear
4:35 AM 50.9 °F 47.8 °F 89% 30.21 in 10.0 mi Calm Calm - N/A   Clear
4:55 AM 50.4 °F 47.8 °F 91% 30.22 in 10.0 mi Calm Calm - N/A   Clear
5:15 AM 50.9 °F 47.5 °F 88% 30.23 in 10.0 mi Calm Calm - N/A   Clear
5:35 AM 50.9 °F 47.3 °F 87% 30.23 in 10.0 mi Calm Calm - N/A   Clear
5:55 AM 50.4 °F 46.8 °F 87% 30.24 in 10.0 mi Calm Calm - N/A   Clear
6:15 AM 50.4 °F 46.6 °F 87% 30.24 in 10.0 mi Calm Calm - N/A   Clear
6:35 AM 50.0 °F 47.3 °F 90% 30.25 in 10.0 mi Calm Calm - N/A   Clear
6:55 AM 50.9 °F 47.5 °F 88% 30.26 in 10.0 mi Calm Calm - N/A   Clear
7:15 AM 52.5 °F 48.2 °F 85% 30.26 in 10.0 mi Calm Calm - N/A   Clear
7:35 AM 53.1 °F 46.6 °F 79% 30.26 in 10.0 mi Calm Calm - N/A   Clear
7:55 AM 55.4 °F 46.2 °F 71% 30.26 in 10.0 mi Calm Calm - N/A   Clear
8:15 AM 56.8 °F 46.6 °F 69% 30.26 in 10.0 mi Calm Calm - N/A   Clear
8:35 AM 58.1 °F 48.4 °F 70% 30.26 in 10.0 mi Calm Calm - N/A   Clear
8:55 AM 59.7 °F 48.2 °F 66% 30.26 in 10.0 mi Calm Calm - N/A   Clear
9:15 AM 62.4 °F 46.9 °F 57% 30.26 in 10.0 mi Calm Calm - N/A   Clear
9:35 AM 63.9 °F 46.6 °F 53% 30.26 in 10.0 mi Calm Calm - N/A   Clear
9:55 AM 66.0 °F 47.7 °F 52% 30.24 in 10.0 mi Calm Calm - N/A   Clear
10:15 AM 68.5 °F 48.7 °F 49% 30.23 in 10.0 mi Calm Calm - N/A   Clear
10:35 AM 73.2 °F 42.6 °F 33% 30.24 in 10.0 mi ESE 3.5 mph - N/A   Clear
10:55 AM 74.7 °F 39.6 °F 28% 30.24 in 10.0 mi SSW 4.6 mph - N/A   Clear
11:15 AM 75.6 °F 40.6 °F 28% 30.24 in 10.0 mi Calm Calm - N/A   Clear
11:35 AM 75.4 °F 41.2 °F 29% 30.24 in 10.0 mi West 4.6 mph - N/A   Clear
11:55 AM 76.8 °F 40.3 °F 27% 30.24 in 10.0 mi NW 5.8 mph - N/A   Clear
12:15 PM 78.4 °F 40.5 °F 26% 30.24 in 10.0 mi WSW 4.6 mph - N/A   Clear
12:35 PM 79.2 °F 37.6 °F 22% 30.24 in 10.0 mi NNE 6.9 mph - N/A   Unknown
12:55 PM 78.3 °F 37.8 °F 23% 30.24 in 10.0 mi Calm Calm - N/A   Clear
1:15 PM 81.3 °F 38.3 °F 21% 30.23 in 10.0 mi NNW 5.8 mph - N/A   Scattered Clouds
1:35 PM 81.0 °F 36.0 °F 20% 30.22 in 10.0 mi NNW 4.6 mph - N/A   Scattered Clouds
1:55 PM 80.6 °F 36.0 °F 20% 30.21 in 10.0 mi Calm Calm - N/A   Clear
2:15 PM 81.9 °F 33.1 °F 17% 30.20 in 10.0 mi WNW 5.8 mph - N/A   Clear
2:35 PM 83.3 °F 32.4 °F 16% 30.20 in 10.0 mi Calm Calm - N/A   Clear
2:55 PM 82.6 °F 31.3 °F 16% 30.18 in 10.0 mi Calm Calm - N/A   Clear
3:15 PM 81.9 °F 32.0 °F 16% 30.18 in 10.0 mi NNE 3.5 mph - N/A   Clear
3:35 PM 84.0 °F 30.0 °F 14% 30.18 in 10.0 mi NE 3.5 mph - N/A   Clear
3:55 PM 84.4 °F 28.6 °F 13% 30.18 in 10.0 mi Calm Calm - N/A   Clear
4:15 PM 82.0 °F 30.4 °F 15% 30.18 in 10.0 mi Calm Calm - N/A   Clear
4:35 PM 81.5 °F 31.3 °F 16% 30.17 in 10.0 mi Calm Calm - N/A   Clear
4:55 PM 80.6 °F 32.2 °F 17% 30.17 in 10.0 mi Calm Calm - N/A   Clear
5:15 PM 81.1 °F 30.6 °F 16% 30.17 in 10.0 mi Calm Calm - N/A   Clear
5:35 PM 82.0 °F 29.8 °F 15% 30.16 in 10.0 mi Calm Calm - N/A   Clear
5:55 PM 78.6 °F 35.1 °F 21% 30.16 in 10.0 mi South 3.5 mph - N/A   Clear
6:15 PM 80.6 °F 32.5 °F 18% 30.15 in 10.0 mi SSE 4.6 mph - N/A   Clear
6:35 PM 82.8 °F 35.4 °F 18% 30.15 in 10.0 mi SSW 4.6 mph - N/A   Clear
6:55 PM 80.4 °F 37.2 °F 21% 30.16 in 10.0 mi Calm Calm - N/A   Clear
7:15 PM 80.1 °F 35.6 °F 20% 30.15 in 10.0 mi Calm Calm - N/A   Clear
7:35 PM 77.4 °F 36.7 °F 23% 30.16 in 10.0 mi Calm Calm - N/A   Clear
7:55 PM 74.7 °F 37.9 °F 26% 30.16 in 10.0 mi Calm Calm - N/A   Clear
8:15 PM 74.5 °F 37.0 °F 26% 30.16 in 10.0 mi Calm Calm - N/A   Clear
8:35 PM 70.7 °F 40.8 °F 34% 30.16 in 10.0 mi ESE 4.6 mph - N/A   Clear
8:55 PM 67.1 °F 43.2 °F 42% 30.18 in 10.0 mi NNW 5.8 mph - N/A   Clear
9:15 PM 68.9 °F 38.3 °F 33% 30.19 in 10.0 mi Calm Calm - N/A   Clear
9:35 PM 66.0 °F 41.2 °F 40% 30.21 in 10.0 mi SSW 5.8 mph - N/A   Clear
9:55 PM 64.9 °F 42.4 °F 44% 30.22 in 10.0 mi SSW 3.5 mph - N/A   Clear
10:15 PM 65.1 °F 41.9 °F 43% 30.24 in 10.0 mi Calm Calm - N/A   Clear
10:35 PM 64.4 °F 42.3 °F 44% 30.25 in 10.0 mi East 4.6 mph - N/A   Clear
10:55 PM 63.1 °F 44.1 °F 50% 30.25 in 10.0 mi East 6.9 mph - N/A   Clear
11:15 PM 63.0 °F 42.8 °F 48% 30.24 in 10.0 mi ENE 4.6 mph - N/A   Clear
11:35 PM 62.6 °F 42.1 °F 47% 30.24 in 10.0 mi Calm Calm - N/A   Clear
11:55 PM 61.7 °F 42.6 °F 50% 30.24 in 10.0 mi Calm Calm - N/A   Clear